TimeCST,TemperatureF,Dew PointF,Humidity,Sea Level PressureIn,VisibilityMPH,Wind Direction,Wind SpeedMPH,Gust SpeedMPH,PrecipitationIn,Events,Conditions,WindDirDegrees,DateUTC
12:15 AM,55.4,42.8,63,29.73,10.0,SSW,10.4,-,N/A,,Clear,210,2012-11-22 06:15:00
12:35 AM,55.4,42.8,63,29.72,10.0,South,12.7,-,N/A,,Clear,190,2012-11-22 06:35:00
12:55 AM,55.4,42.8,63,29.71,10.0,SSW,11.5,-,N/A,,Clear,200,2012-11-22 06:55:00
1:15 AM,57.2,42.8,59,29.70,10.0,South,11.5,-,N/A,,Clear,190,2012-11-22 07:15:00
1:35 AM,53.6,42.8,67,29.70,10.0,SSW,11.5,-,N/A,,Clear,200,2012-11-22 07:35:00
1:55 AM,53.6,42.8,67,29.70,10.0,SSW,9.2,-,N/A,,Clear,200,2012-11-22 07:55:00
2:15 AM,51.8,42.8,71,29.71,10.0,SSW,8.1,-,N/A,,Clear,200,2012-11-22 08:15:00
2:35 AM,51.8,42.8,71,29.70,10.0,South,8.1,-,N/A,,Clear,180,2012-11-22 08:35:00
2:55 AM,51.8,42.8,71,29.69,10.0,South,8.1,-,N/A,,Clear,190,2012-11-22 08:55:00
3:15 AM,51.8,42.8,71,29.68,10.0,South,9.2,-,N/A,,Clear,190,2012-11-22 09:15:00
3:35 AM,51.8,42.8,71,29.68,10.0,South,8.1,-,N/A,,Clear,190,2012-11-22 09:35:00
3:55 AM,51.8,42.8,71,29.67,10.0,South,9.2,-,N/A,,Clear,190,2012-11-22 09:55:00
4:15 AM,51.8,42.8,71,29.67,10.0,South,10.4,-,N/A,,Clear,190,2012-11-22 10:15:00
4:35 AM,50.0,41.0,71,29.67,10.0,SSW,9.2,-,N/A,,Clear,200,2012-11-22 10:35:00
4:55 AM,48.2,41.0,76,29.67,10.0,SSW,5.8,-,N/A,,Clear,200,2012-11-22 10:55:00
5:15 AM,46.4,39.2,76,29.68,10.0,SSW,5.8,-,N/A,,Clear,200,2012-11-22 11:15:00
5:35 AM,46.4,39.2,76,29.67,10.0,South,5.8,-,N/A,,Clear,190,2012-11-22 11:35:00
5:55 AM,46.4,39.2,76,29.68,10.0,SSW,6.9,-,N/A,,Clear,200,2012-11-22 11:55:00
6:15 AM,46.4,39.2,76,29.68,10.0,South,5.8,-,N/A,,Clear,190,2012-11-22 12:15:00
6:35 AM,44.6,37.4,76,29.68,10.0,South,5.8,-,N/A,,Clear,190,2012-11-22 12:35:00
6:55 AM,42.8,37.4,81,29.69,10.0,SSW,5.8,-,N/A,,Clear,200,2012-11-22 12:55:00
7:15 AM,42.8,37.4,81,29.69,10.0,South,4.6,-,N/A,,Clear,190,2012-11-22 13:15:00
7:35 AM,39.2,35.6,87,29.70,10.0,Calm,Calm,-,N/A,,Clear,0,2012-11-22 13:35:00
7:55 AM,39.2,35.6,87,29.72,10.0,Calm,Calm,-,N/A,,Clear,0,2012-11-22 13:55:00
8:15 AM,42.8,37.4,81,29.72,10.0,SW,4.6,-,N/A,,Clear,220,2012-11-22 14:15:00
8:35 AM,46.4,35.6,66,29.74,10.0,West,4.6,-,N/A,,Clear,270,2012-11-22 14:35:00
8:55 AM,48.2,33.8,58,29.74,10.0,WNW,11.5,17.3,N/A,,Clear,300,2012-11-22 14:55:00
9:15 AM,48.2,33.8,58,29.75,10.0,NW,12.7,17.3,N/A,,Clear,310,2012-11-22 15:15:00
9:35 AM,51.8,33.8,50,29.75,10.0,NW,16.1,21.9,N/A,,Clear,320,2012-11-22 15:35:00
9:55 AM,51.8,33.8,50,29.77,10.0,NW,20.7,25.3,N/A,,Clear,320,2012-11-22 15:55:00
10:15 AM,53.6,35.6,51,29.78,10.0,NW,21.9,28.8,N/A,,Clear,320,2012-11-22 16:15:00
10:35 AM,55.4,35.6,47,29.80,10.0,NW,18.4,25.3,N/A,,Clear,310,2012-11-22 16:35:00
10:55 AM,55.4,35.6,47,29.82,10.0,NW,21.9,35.7,N/A,,Clear,320,2012-11-22 16:55:00
11:15 AM,55.4,35.6,47,29.84,10.0,NNW,21.9,33.4,N/A,,Clear,330,2012-11-22 17:15:00
11:35 AM,53.6,35.6,51,29.84,10.0,NNW,21.9,32.2,N/A,,Clear,330,2012-11-22 17:35:00
11:55 AM,53.6,35.6,51,29.85,10.0,NW,28.8,40.3,N/A,,Clear,320,2012-11-22 17:55:00
12:15 PM,51.8,33.8,50,29.87,10.0,NW,27.6,35.7,N/A,,Clear,320,2012-11-22 18:15:00
12:35 PM,51.8,33.8,50,29.88,10.0,NW,27.6,39.1,N/A,,Clear,320,2012-11-22 18:35:00
12:55 PM,51.8,33.8,50,29.89,10.0,NW,25.3,39.1,N/A,,Scattered Clouds,320,2012-11-22 18:55:00
1:15 PM,51.8,33.8,50,29.91,10.0,NNW,24.2,40.3,N/A,,Scattered Clouds,330,2012-11-22 19:15:00
1:35 PM,51.8,33.8,50,29.92,10.0,NNW,25.3,32.2,N/A,,Clear,340,2012-11-22 19:35:00
1:55 PM,51.8,33.8,50,29.93,10.0,NNW,24.2,34.5,N/A,,Clear,330,2012-11-22 19:55:00
2:15 PM,51.8,33.8,50,29.95,10.0,NNW,23.0,34.5,N/A,,Scattered Clouds,340,2012-11-22 20:15:00
2:35 PM,50.0,33.8,54,29.97,10.0,NNW,24.2,33.4,N/A,,Mostly Cloudy,330,2012-11-22 20:35:00
2:55 PM,48.2,33.8,58,29.98,10.0,NNW,29.9,38.0,N/A,,Overcast,330,2012-11-22 20:55:00
3:15 PM,46.4,33.8,62,29.99,10.0,NNW,21.9,32.2,N/A,,Overcast,330,2012-11-22 21:15:00
3:35 PM,46.4,33.8,62,30.01,10.0,NNW,16.1,31.1,N/A,,Mostly Cloudy,340,2012-11-22 21:35:00
3:55 PM,46.4,33.8,62,30.03,10.0,NW,21.9,28.8,N/A,,Overcast,320,2012-11-22 21:55:00
4:15 PM,46.4,33.8,62,30.03,10.0,NNW,20.7,28.8,N/A,,Mostly Cloudy,330,2012-11-22 22:15:00
4:35 PM,46.4,33.8,62,30.05,10.0,NNW,13.8,20.7,N/A,,Clear,330,2012-11-22 22:35:00
4:55 PM,44.6,33.8,66,30.05,10.0,NW,16.1,23.0,N/A,,Clear,320,2012-11-22 22:55:00
5:15 PM,44.6,32.0,61,30.07,10.0,NNW,6.9,-,N/A,,Clear,340,2012-11-22 23:15:00
5:35 PM,44.6,30.2,57,30.07,10.0,NNW,13.8,23.0,N/A,,Clear,330,2012-11-22 23:35:00
5:55 PM,42.8,30.2,61,30.09,10.0,NW,12.7,-,N/A,,Clear,320,2012-11-22 23:55:00
6:15 PM,42.8,30.2,61,30.10,10.0,NNW,8.1,-,N/A,,Clear,330,2012-11-23 00:15:00
6:35 PM,42.8,30.2,61,30.11,10.0,NW,15.0,-,N/A,,Clear,320,2012-11-23 00:35:00
6:55 PM,42.8,30.2,61,30.12,10.0,NNW,10.4,-,N/A,,Clear,330,2012-11-23 00:55:00
8:15 PM,39.2,24.8,56,30.16,10.0,NW,13.8,18.4,N/A,,Clear,320,2012-11-23 02:15:00
8:35 PM,37.4,24.8,60,30.17,10.0,NW,11.5,-,N/A,,Clear,320,2012-11-23 02:35:00
8:55 PM,37.4,23.0,56,30.17,10.0,NW,10.4,-,N/A,,Clear,320,2012-11-23 02:55:00
9:15 PM,35.6,21.2,56,30.17,10.0,NW,11.5,17.3,N/A,,Clear,310,2012-11-23 03:15:00
9:35 PM,35.6,21.2,56,30.17,10.0,NW,10.4,-,N/A,,Scattered Clouds,320,2012-11-23 03:35:00
9:55 PM,35.6,21.2,56,30.18,10.0,NW,12.7,-,N/A,,Overcast,310,2012-11-23 03:55:00
10:15 PM,35.6,19.4,52,30.19,10.0,NW,17.3,26.5,N/A,,Overcast,320,2012-11-23 04:15:00
10:35 PM,35.6,19.4,52,30.20,10.0,NW,19.6,28.8,N/A,,Overcast,320,2012-11-23 04:35:00
10:55 PM,35.6,19.4,52,30.20,10.0,NW,16.1,27.6,N/A,,Overcast,320,2012-11-23 04:55:00
11:15 PM,35.6,17.6,48,30.21,10.0,NNW,24.2,35.7,N/A,,Overcast,330,2012-11-23 05:15:00
11:35 PM,35.6,19.4,52,30.22,10.0,NNW,21.9,28.8,N/A,,Overcast,330,2012-11-23 05:35:00
11:55 PM,33.8,15.8,48,30.24,10.0,NNW,26.5,34.5,N/A,,Overcast,330,2012-11-23 05:55:00